1496383200.74,34838,18.81,74116.5,7.95,-26.87,-27.83,0,*77
1496383201.96,34839,18.81,74120.5,7.97,-26.71,-27.55,0,*76
1496383203.21,34840,18.81,74120.5,7.99,-26.61,-27.39,0,*7D
1496383204.44,34841,18.81,74120.3,8.01,-26.49,-27.35,0,*74
1496383205.69,34842,18.81,74118.5,8.03,-26.71,-27.71,0,*7E
1496383206.91,34843,18.81,74118.5,8.05,-27.83,-28.85,0,*71
1496383208.13,34844,18.81,74116.8,8.05,-28.21,-29.07,0,*7A
1496383209.36,34845,18.81,74118.5,8.03,-31.01,-32.23,0,*7B
1496383210.59,34846,18.81,74124.0,8.05,-31.11,-32.51,0,*7A
1496383211.84,34847,18.81,74122.5,8.03,-32.13,-33.31,0,*7B
1496383213.12,34848,18.81,74118.8,7.99,-32.07,-33.43,0,*78
1496383214.38,34849,18.81,74118.5,7.99,-33.37,-34.65,0,*78
1496383215.63,34850,18.81,74122.0,7.95,-34.19,-35.59,0,*79
1496383216.88,34851,18.81,74126.3,7.89,-33.09,-34.35,0,*78
1496383218.08,34852,18.81,74120.3,7.85,-33.55,-34.89,0,*79
1496383219.32,34853,18.81,74122.5,7.81,-34.01,-35.29,0,*71
1496383220.54,34854,18.81,74122.0,7.79,-33.43,-34.77,0,*7A
1496383221.83,34855,18.81,74122.0,7.77,-33.73,-34.65,0,*75
1496383223.07,34856,18.81,74122.5,7.73,-33.43,-34.89,0,*73
1496383224.32,34857,18.81,74120.3,7.71,-31.95,-33.09,0,*76
1496383225.53,34858,18.81,74120.3,7.67,-32.35,-33.61,0,*79
1496383226.76,34859,18.81,74116.0,7.71,-32.57,-33.77,0,*7C
1496383228.0,34860,18.81,74118.0,7.67,-32.19,-33.49,0,*76
1496383229.25,34861,18.81,74116.0,7.63,-31.51,-32.63,0,*75
1496383230.5,34862,18.81,74124.0,7.65,-31.95,-33.15,0,*78
1496383231.72,34863,18.81,74122.5,7.63,-32.97,-34.13,0,*7F
1496383232.95,34864,18.81,74122.3,7.61,-31.79,-33.03,0,*7F
1496383234.15,34865,18.81,74120.3,7.59,-31.79,-32.91,0,*7F
1496383235.38,34866,18.81,74118.5,7.59,-31.57,-32.69,0,*77
1496383236.58,34867,18.81,74122.8,7.59,-28.69,-29.67,0,*77
1496383237.85,34868,18.81,74124.5,7.61,-27.83,-28.79,0,*76
1496383239.07,34869,18.81,74126.3,7.63,-27.93,-28.91,0,*72
1496383240.32,34870,18.81,74128.0,7.65,-28.31,-29.39,0,*78
1496383241.54,34871,18.81,74128.3,7.65,-28.97,-30.11,0,*77
1496383242.77,34872,18.81,74128.5,7.67,-31.11,-32.35,0,*74
1496383243.96,34873,18.81,74134.3,7.67,-31.33,-32.39,0,*79
1496383245.21,34874,18.81,74128.5,7.65,-30.45,-31.51,0,*71
1496383246.49,34875,18.81,74134.0,7.65,-31.61,-32.75,0,*72
1496383247.69,34876,18.81,74124.5,7.63,-32.23,-33.37,0,*75
1496383248.91,34877,18.81,74122.3,7.63,-31.95,-33.15,0,*7A
1496383250.17,34878,18.81,74124.3,7.61,-31.11,-32.13,0,*7C
1496383251.45,34879,18.81,74124.3,7.61,-29.51,-30.39,0,*7A
1496383252.71,34880,18.81,74128.3,7.61,-30.05,-31.45,0,*7F
1496383253.93,34881,18.81,74130.5,7.63,-29.29,-30.33,0,*7A
1496383255.16,34882,18.81,74126.8,7.63,-28.75,-29.61,0,*7E
1496383256.4,34883,18.81,74128.3,7.65,-27.55,-28.47,0,*71
1496383257.6,34884,18.81,74130.3,7.67,-27.55,-28.53,0,*71
1496383258.82,34885,18.81,74132.0,7.71,-27.83,-28.85,0,*77
1496383260.04,34886,18.81,74128.3,7.71,-28.63,-29.67,0,*78
1496383261.29,34887,18.81,74130.0,7.73,-28.63,-29.57,0,*78
1496383262.52,34888,18.81,74130.3,7.77,-28.97,-29.83,0,*71
1496383263.76,34889,18.81,74126.0,7.77,-29.23,-30.33,0,*7D
1496383264.98,34890,18.81,74128.5,7.77,-30.83,-31.79,0,*78
1496383266.21,34891,18.81,74124.8,7.77,-30.11,-31.17,0,*7A
1496383267.44,34892,18.81,74126.0,7.75,-29.45,-30.51,0,*71
1496383268.66,34893,18.81,74128.3,7.75,-29.13,-30.27,0,*72
1496383269.94,34894,18.81,74126.0,7.77,-31.91,-33.49,0,*7F
1496383271.19,34895,18.81,74132.0,7.75,-31.73,-32.79,0,*72
1496383272.46,34896,18.81,74128.8,7.73,-30.77,-31.95,0,*73
1496383273.71,34897,18.81,74128.3,7.71,-30.95,-31.51,0,*74
1496383274.99,34898,18.81,74126.3,7.73,-29.89,-31.11,0,*78
1496383276.27,34899,18.81,74128.0,7.73,-30.01,-30.89,0,*71
1496383277.49,34900,18.81,74134.5,7.71,-30.05,-31.05,0,*73
1496383278.73,34901,18.81,74130.0,7.73,-31.79,-33.09,0,*74
1496383279.95,34902,18.81,74124.3,7.71,-32.63,-33.55,0,*74
1496383281.17,34903,18.81,74124.0,7.67,-32.57,-33.77,0,*75
1496383282.45,34904,18.81,74122.0,7.65,-32.63,-33.89,0,*76
1496383283.7,34905,18.81,74120.5,7.63,-31.51,-32.79,0,*7D
1496383284.95,34906,18.81,74116.5,7.63,-31.73,-32.85,0,*7D
1496383286.23,34907,18.81,74116.3,7.61,-30.77,-31.95,0,*79
1496383287.46,34908,18.81,74118.3,7.59,-29.35,-30.23,0,*7F
1496383288.72,34909,18.81,74120.5,7.63,-29.13,-30.17,0,*74
1496383289.99,34910,18.81,74120.5,7.61,-29.13,-30.01,0,*79
1496383291.25,34911,18.81,74126.0,7.63,-27.61,-28.63,0,*7C
1496383292.51,34912,18.81,74122.5,7.65,-27.07,-28.05,0,*79
1496383293.76,34913,18.81,74122.3,7.67,-28.05,-29.17,0,*75
1496383295.0,34914,18.81,74126.3,7.67,-29.17,-30.51,0,*7A
1496383296.23,34915,18.81,74128.3,7.71,-29.83,-30.95,0,*79
1496383297.48,34916,18.81,74130.8,7.71,-29.13,-30.17,0,*79
1496383298.73,34917,18.81,74130.0,7.73,-30.05,-31.29,0,*79
1496383300.0,34918,18.81,74126.0,7.73,-30.77,-31.95,0,*74
1496383301.25,34919,18.81,74124.3,7.71,-30.17,-31.23,0,*7C
1496383302.48,34920,18.81,74124.5,7.71,-29.17,-30.33,0,*7E
1496383303.74,34921,18.81,74124.8,7.71,-29.89,-30.89,0,*79
1496383305.0,34922,18.81,74124.3,7.71,-29.89,-30.89,0,*7A
1496383306.25,34923,18.81,74126.5,7.71,-28.21,-29.29,0,*7A
1496383307.52,34924,18.81,74124.8,7.73,-29.01,-29.89,0,*76
1496383308.78,34925,18.81,74126.0,7.75,-27.45,-28.25,0,*78
1496383310.0,34926,18.81,74128.3,7.79,-27.03,-28.05,0,*77
1496383311.28,34927,18.81,74122.3,7.77,-29.13,-30.17,0,*7D
1496383312.48,34928,18.81,74112.8,7.79,-28.85,-29.79,0,*72
1496383313.72,34929,18.81,74118.8,7.79,-27.99,-28.91,0,*76
1496383314.95,34930,18.81,74116.0,7.83,-27.13,-28.15,0,*75
1496383316.2,34931,18.81,74122.3,7.83,-27.13,-27.99,0,*7F
1496383317.46,34932,18.81,74120.0,7.85,-27.61,-28.47,0,*73
1496383318.71,34933,18.81,74108.5,7.87,-28.15,-29.17,0,*78
1496383319.97,34934,18.81,74110.3,7.87,-30.01,-31.05,0,*79
1496383321.25,34935,18.81,74110.8,7.87,-28.47,-29.51,0,*7B
1496383322.47,34936,18.81,74108.8,7.89,-27.35,-28.37,0,*7D
1496383323.72,34937,18.81,74116.0,7.93,-28.09,-29.17,0,*74
1496383324.94,34938,18.81,74118.5,7.93,-27.35,-28.37,0,*78
1496383326.18,34939,18.81,74120.8,7.93,-26.77,-27.77,0,*75
1496383327.44,34940,18.81,74124.5,7.97,-26.97,-28.09,0,*77
1496383328.71,34941,18.81,74132.5,7.99,-28.09,-29.01,0,*78
1496383329.93,34942,18.81,74130.5,7.99,-27.93,-28.97,0,*79
1496383331.16,34943,18.81,74134.8,7.99,-29.95,-31.01,0,*77
1496383332.44,34944,18.81,74134.8,7.99,-31.57,-32.79,0,*7B
1496383333.63,34945,18.81,74136.3,7.97,-33.03,-34.41,0,*7A
1496383334.86,34946,18.81,74136.3,7.95,-33.21,-34.47,0,*7D
1496383336.08,34947,18.81,74122.8,7.87,-33.03,-34.25,0,*7B
1496383337.33,34948,18.81,74124.0,7.85,-32.45,-33.61,0,*72
1496383338.61,34949,18.81,74122.8,7.83,-30.77,-31.85,0,*7E
1496383339.83,34950,18.81,74132.3,7.83,-30.23,-31.33,0,*7A
1496383341.04,34951,18.81,74128.5,7.81,-30.55,-31.67,0,*79
1496383342.25,34952,18.81,74130.5,7.81,-28.85,-29.83,0,*7D
1496383343.48,34953,18.81,74134.3,7.81,-27.83,-28.85,0,*72
1496383344.71,34954,18.81,74130.0,7.85,-28.15,-29.17,0,*7B
1496383345.97,34955,18.81,74130.3,7.85,-29.35,-30.51,0,*73
1496383347.25,34956,18.81,74128.0,7.87,-28.43,-29.51,0,*7A
1496383348.48,34957,18.81,74130.0,7.89,-27.51,-28.43,0,*7B
1496383349.73,34958,18.81,74128.5,7.89,-27.23,-28.09,0,*7F
1496383350.98,34959,18.81,74130.3,7.95,-26.45,-27.35,0,*72
1496383352.21,34960,18.81,74128.0,7.97,-26.07,-26.93,0,*71
1496383353.47,34961,18.81,74120.3,7.97,-27.45,-28.59,0,*7F
1496383354.71,34962,18.81,74126.5,8.01,-28.09,-29.13,0,*74
1496383355.97,34963,18.81,74126.3,7.99,-26.97,-27.67,0,*7F
1496383357.2,34964,18.81,74126.8,8.01,-26.17,-27.03,0,*7C
1496383358.42,34965,18.81,74132.5,8.05,-25.71,-26.49,0,*75
1496383359.7,34966,18.81,74132.5,8.07,-25.75,-26.77,0,*7D
1496383360.94,34967,18.81,74130.3,8.09,-26.55,-27.39,0,*78
1496383362.17,34968,18.81,74136.0,8.15,-26.45,-27.35,0,*77
1496383363.42,34969,18.81,74134.0,8.15,-25.97,-26.97,0,*73
1496383364.67,34970,18.81,74152.0,8.19,-25.45,-26.13,0,*74
1496383365.93,34971,18.81,74150.3,8.21,-27.19,-28.21,0,*7A
1496383367.16,34972,18.81,74136.8,8.23,-29.13,-30.33,0,*75
1496383368.38,34973,18.81,74132.5,8.21,-29.07,-30.11,0,*73
1496383369.61,34974,18.81,74130.8,8.21,-29.83,-31.05,0,*7C
1496383370.83,34975,18.81,74130.8,8.21,-29.07,-30.11,0,*75
1496383372.03,34976,18.81,74132.5,8.19,-30.33,-31.45,0,*72
1496383373.31,34977,18.81,74134.8,8.17,-31.57,-32.63,0,*79
1496383374.53,34978,18.81,74138.8,8.17,-30.23,-31.29,0,*79
1496383375.79,34979,18.81,74130.8,8.11,-29.29,-30.33,0,*76
1496383377.05,34980,18.81,74132.8,8.11,-29.45,-30.61,0,*7D
1496383378.31,34981,18.81,74124.3,8.11,-29.45,-30.77,0,*7B
1496383379.56,34982,18.81,74128.0,8.11,-28.91,-29.95,0,*74
1496383380.76,34983,18.81,74126.0,8.15,-28.69,-29.67,0,*7B
1496383382.03,34984,18.81,74124.5,8.11,-28.09,-29.13,0,*7D
1496383383.24,34985,18.81,74130.8,8.15,-28.31,-29.39,0,*7B
1496383384.46,34986,18.81,74130.8,8.15,-28.31,-29.39,0,*78
1496383385.68,34987,18.81,74130.8,8.15,-29.23,-30.39,0,*73
1496383386.94,34988,18.81,74130.5,8.11,-32.07,-33.37,0,*79
1496383388.17,34989,18.81,74130.5,8.09,-31.85,-32.91,0,*75
1496383389.42,34990,18.81,74128.3,8.07,-29.61,-30.73,0,*7E
1496383390.67,34991,18.81,74134.3,8.07,-28.43,-29.45,0,*73
1496383391.9,34992,18.81,74128.0,8.07,-28.15,-29.29,0,*79
1496383393.15,34993,18.81,74124.8,8.09,-28.59,-29.73,0,*71
1496383394.38,34994,18.81,74122.5,8.09,-28.59,-29.57,0,*70
1496383395.58,34995,18.81,74116.8,8.09,-27.89,-28.97,0,*7E
1496383396.77,34996,18.81,74118.5,8.15,-27.71,-28.69,0,*76
1496383397.97,34997,18.81,74122.0,8.15,-26.49,-27.51,0,*79
1496383399.17,34998,18.81,74132.0,8.19,-27.13,-28.15,0,*7B
1496383400.44,34999,18.81,74118.3,8.17,-27.83,-28.79,0,*77
1496383401.64,35000,18.81,74126.3,8.19,-27.77,-28.69,0,*7B
1496383402.88,35001,18.81,74126.8,8.19,-27.67,-28.63,0,*71
1496383404.11,35002,18.81,74126.0,8.23,-27.19,-28.09,0,*7E
1496383405.37,35003,18.81,74126.3,8.21,-27.77,-28.63,0,*79
1496383406.61,35004,18.81,74120.0,8.25,-27.51,-28.59,0,*77
1496383407.86,35005,18.81,74120.8,8.25,-27.13,-28.05,0,*79
1496383409.09,35006,18.81,74126.3,8.27,-27.67,-28.59,0,*72
1496383410.33,35007,18.81,74126.3,8.27,-28.09,-29.01,0,*78
1496383411.54,35008,18.81,74130.3,8.27,-28.31,-29.29,0,*76
1496383412.78,35009,18.81,74124.5,8.27,-29.67,-30.61,0,*71
1496383414.0,35010,18.81,74130.8,8.27,-27.51,-28.63,0,*79
1496383415.22,35011,18.81,74130.8,8.27,-26.81,-27.93,0,*74
1496383416.5,35012,18.81,74124.3,8.29,-27.45,-28.47,0,*76
1496383417.73,35013,18.81,74130.0,8.29,-28.53,-29.67,0,*7C
1496383419.0,35014,18.81,74124.8,8.29,-30.01,-31.11,0,*7D
1496383420.24,35015,18.81,74124.0,8.27,-28.25,-29.29,0,*7F
1496383421.46,35016,18.81,74120.8,8.27,-29.17,-30.23,0,*7E
1496383422.74,35017,18.81,74124.3,8.29,-28.09,-29.01,0,*77
1496383423.97,35018,18.81,74128.0,8.27,-27.67,-28.63,0,*74
1496383425.19,35019,18.81,74130.3,8.31,-27.03,-28.05,0,*70
1496383426.4,35020,18.81,74132.8,8.31,-26.45,-27.45,0,*72
1496383427.67,35021,18.81,74134.5,8.33,-27.39,-28.43,0,*72
1496383428.92,35022,18.81,74136.0,8.33,-27.77,-28.91,0,*74
1496383430.12,35023,18.81,74132.3,8.35,-29.07,-30.11,0,*7B
1496383431.39,35024,18.81,74134.0,8.33,-29.51,-30.83,0,*72
1496383432.6,35025,18.81,74138.3,8.33,-31.01,-32.13,0,*74
1496383433.87,35026,18.81,74132.5,8.29,-32.29,-33.61,0,*71
1496383435.06,35027,18.81,74126.0,8.27,-31.79,-32.91,0,*76
1496383436.31,35028,18.81,74116.5,8.25,-30.61,-31.79,0,*76
1496383437.52,35029,18.81,74116.8,8.25,-28.31,-29.23,0,*7D
1496383438.75,35030,18.81,74118.8,8.25,-28.53,-29.57,0,*72
1496383439.99,35031,18.81,74114.3,8.25,-30.33,-31.57,0,*75
1496383441.25,35032,18.81,74106.5,8.25,-29.57,-30.61,0,*78
1496383442.5,35033,18.81,74104.3,8.25,-29.17,-30.11,0,*7A
1496383443.72,35034,18.81,74110.3,8.25,-27.71,-28.69,0,*75
1496383444.94,35035,18.81,74104.5,8.25,-28.53,-29.61,0,*72
1496383446.17,35036,18.81,74100.3,8.25,-28.53,-29.57,0,*74
1496383447.4,35037,18.81,74116.5,8.27,-27.61,-28.53,0,*7C
1496383448.62,35038,18.81,74114.8,8.27,-27.13,-27.99,0,*7F
1496383449.87,35039,18.81,74116.8,8.29,-27.07,-27.99,0,*75
1496383451.1,35040,18.81,74120.5,8.31,-26.39,-27.39,0,*74
1496383452.32,35041,18.81,74118.3,8.35,-26.39,-27.39,0,*71
1496383453.52,35042,18.81,74122.5,8.35,-26.49,-27.51,0,*7B
1496383454.78,35043,18.81,74120.5,8.41,-26.49,-27.35,0,*7B
1496383456.02,35044,18.81,74124.3,8.41,-25.91,-26.81,0,*74
1496383457.26,35045,18.81,74126.8,8.47,-26.03,-26.87,0,*7D
1496383458.52,35046,18.81,74124.3,8.47,-25.97,-26.87,0,*70
1496383459.77,35047,18.81,74124.3,8.51,-26.97,-28.15,0,*70
1496383461.03,35048,18.81,74128.3,8.51,-27.39,-28.31,0,*7C
1496383462.28,35049,18.81,74126.3,8.51,-28.43,-29.45,0,*7D
1496383463.5,35050,18.81,74124.0,8.51,-26.87,-27.89,0,*7D
1496383464.78,35051,18.81,74126.0,8.51,-26.97,-28.05,0,*76
1496383466.06,35052,18.81,74128.5,8.51,-28.63,-29.51,0,*70
1496383467.31,35053,18.81,74126.0,8.53,-29.29,-30.39,0,*7A
1496383468.52,35054,18.81,74126.5,8.53,-29.07,-30.23,0,*7A
1496383469.78,35055,18.81,74126.8,8.51,-29.07,-30.17,0,*7E
1496383471.03,35056,18.81,74122.5,8.49,-31.23,-32.45,0,*7E
1496383472.26,35057,18.81,74120.0,8.45,-32.79,-33.83,0,*74
1496383473.46,35058,18.81,74122.8,8.45,-30.45,-31.67,0,*7E
1496383474.66,35059,18.81,74126.0,8.39,-28.85,-29.83,0,*72
1496383475.92,35060,18.81,74120.3,8.41,-29.89,-31.29,0,*73
1496383477.13,35061,18.81,74122.0,8.39,-30.33,-31.57,0,*7D
1496383478.35,35062,18.81,74122.8,8.39,-30.17,-31.29,0,*71
1496383479.6,35063,18.81,74120.8,8.39,-30.05,-31.23,0,*79
1496383480.8,35064,18.81,74122.0,8.35,-30.11,-31.17,0,*70
1496383482.05,35065,18.81,74112.5,8.33,-29.13,-30.27,0,*7F
1496383483.27,35066,18.81,74094.0,8.33,-29.83,-31.01,0,*70
1496383484.49,35067,18.81,74102.8,8.35,-28.47,-29.23,0,*77
1496383485.77,35068,18.81,74118.8,8.33,-27.61,-28.63,0,*70
1496383487.01,35069,18.81,74120.8,8.39,-27.99,-29.01,0,*79
1496383488.24,35070,18.81,74114.8,8.35,-31.01,-32.07,0,*77
1496383489.46,35071,18.81,74104.3,8.35,-28.31,-29.35,0,*76
1496383490.69,35072,18.81,74114.0,8.35,-27.23,-28.15,0,*7A
1496383491.91,35073,18.81,74120.8,8.35,-27.23,-28.31,0,*7D
1496383493.2,35074,18.81,74118.0,8.41,-26.77,-27.61,0,*73
1496383494.45,35075,18.81,74122.0,8.45,-27.19,-28.21,0,*74
1496383495.7,35076,18.81,74128.3,8.47,-27.39,-28.37,0,*70
1496383496.96,35077,18.81,74120.0,8.47,-27.03,-28.21,0,*7F
1496383498.19,35078,18.81,74106.8,8.51,-27.29,-28.31,0,*7E
1496383499.41,35079,18.81,74102.5,8.49,-28.15,-29.13,0,*77
1496383500.65,35080,18.81,74110.0,8.51,-28.15,-29.17,0,*7C
1496383501.89,35081,18.81,74110.0,8.53,-27.07,-28.05,0,*71
1496383503.14,35082,18.81,74112.0,8.53,-26.29,-27.23,0,*74
1496383504.39,35083,18.81,74114.0,8.55,-27.89,-29.01,0,*76
1496383505.64,35084,18.81,74112.5,8.55,-27.03,-27.83,0,*77
1496383506.89,35085,18.81,74140.0,8.55,-26.81,-27.89,0,*77
1496383508.15,35086,18.81,74136.0,8.59,-26.45,-27.35,0,*77
1496383509.41,35087,18.81,74130.8,8.59,-25.49,-26.33,0,*7E
1496383510.63,35088,18.81,74128.8,8.65,-25.91,-26.81,0,*72
1496383511.88,35089,18.81,74130.0,8.65,-25.45,-26.29,0,*78
1496383513.14,35090,18.81,74128.8,8.69,-25.55,-26.55,0,*76
1496383514.39,35091,18.81,74132.0,8.71,-25.13,-25.97,0,*71
1496383515.61,35092,18.81,74128.0,8.75,-25.35,-26.07,0,*78
1496383516.87,35093,18.81,74130.0,8.77,-25.39,-26.33,0,*70
1496383518.13,35094,18.81,74126.0,8.77,-25.75,-26.61,0,*78
1496383519.37,35095,18.81,74128.3,8.79,-25.45,-26.29,0,*78
1496383520.62,35096,18.81,74130.0,8.81,-24.97,-25.81,0,*73
1496383521.83,35097,18.81,74126.3,8.87,-26.03,-26.87,0,*7E
1496383523.07,35098,18.81,74126.3,8.87,-25.45,-26.33,0,*7F
1496383524.34,35099,18.81,74122.0,8.89,-25.45,-26.29,0,*7B
1496383525.56,35100,18.81,74124.3,8.91,-25.13,-25.97,0,*76
1496383526.78,35101,18.81,74126.5,8.95,-25.35,-26.29,0,*71
1496383527.98,35102,18.81,74124.3,8.99,-25.09,-26.07,0,*7D
1496383529.17,35103,18.81,74126.5,8.99,-25.19,-26.07,0,*7D
1496383530.42,35104,18.81,74124.8,9.01,-25.19,-25.97,0,*70
1496383531.64,35105,18.81,74120.8,9.03,-25.87,-26.81,0,*70
1496383532.86,35106,18.81,74124.8,9.03,-25.23,-26.17,0,*72
1496383534.1,35107,18.81,74126.3,9.05,-25.35,-26.17,0,*72
1496383535.3,35108,18.81,74126.5,9.09,-25.09,-26.07,0,*7F
1496383536.5,35109,18.81,74124.8,9.13,-24.97,-25.87,0,*78
1496383537.73,35110,18.81,74124.5,9.13,-24.67,-25.49,0,*7D
1496383539.02,35111,18.81,74124.5,9.15,-24.83,-25.75,0,*7F
1496383540.24,35112,18.81,74126.0,9.17,-24.97,-25.81,0,*70
1496383541.5,35113,18.81,74124.8,9.19,-24.77,-25.71,0,*7E
1496383542.74,35114,18.81,74126.5,9.21,-24.71,-25.65,0,*71
1496383544.0,35115,18.81,74124.0,9.25,-25.03,-25.97,0,*7D
1496383545.22,35116,18.81,74122.8,9.25,-25.29,-26.03,0,*78
1496383546.5,35117,18.81,74126.5,9.27,-25.29,-26.29,0,*73
1496383547.72,35118,18.81,74124.5,9.27,-25.61,-26.45,0,*7A
1496383548.97,35119,18.81,74124.8,9.31,-25.13,-25.97,0,*75
1496383550.24,35120,18.81,74124.3,9.31,-25.75,-26.71,0,*74
1496383551.45,35121,18.81,74126.0,9.35,-24.93,-25.91,0,*75
1496383552.7,35122,18.81,74124.8,9.37,-25.03,-25.97,0,*7A
1496383553.92,35123,18.81,74124.8,9.39,-25.61,-26.65,0,*7F
1496383555.14,35124,18.81,74126.3,9.39,-25.65,-26.65,0,*7C
1496383556.38,35125,18.81,74124.8,9.39,-26.17,-27.13,0,*7B
1496383557.66,35126,18.81,74124.0,9.39,-26.97,-27.99,0,*72
1496383558.94,35127,18.81,74130.5,9.41,-27.45,-28.59,0,*71
1496383560.19,35128,18.81,74130.3,9.41,-28.75,-29.95,0,*73
1496383561.41,35129,18.81,74130.8,9.37,-28.63,-29.67,0,*79
1496383562.62,35130,18.81,74128.3,9.37,-30.11,-31.45,0,*74
1496383563.83,35131,18.81,74130.3,9.33,-30.45,-31.73,0,*75
1496383565.06,35132,18.81,74128.8,9.27,-31.29,-32.51,0,*7B
1496383566.34,35133,18.81,74132.8,9.27,-31.11,-32.29,0,*7E
1496383567.62,35134,18.81,74130.3,9.23,-31.57,-32.79,0,*7A
1496383568.89,35135,18.81,74128.5,9.19,-31.39,-32.63,0,*71
1496383570.15,35136,18.81,74134.5,9.17,-30.77,-31.95,0,*7D
1496383571.43,35137,18.81,74132.0,9.15,-29.89,-31.23,0,*7A
1496383572.65,35138,18.81,74134.3,9.13,-30.51,-31.67,0,*7E
1496383573.89,35139,18.81,74130.3,9.11,-30.45,-31.57,0,*7B
1496383575.16,35140,18.81,74130.5,9.11,-30.51,-31.57,0,*70
1496383576.45,35141,18.81,74124.5,9.11,-29.35,-30.51,0,*7C
1496383577.73,35142,18.81,74130.8,9.11,-28.05,-28.79,0,*7E
1496383578.99,35143,18.81,74128.5,9.11,-27.29,-28.21,0,*73
1496383580.21,35144,18.81,74128.8,9.11,-27.93,-29.07,0,*70
1496383581.47,35145,18.81,74128.8,9.11,-30.67,-31.95,0,*7E
1496383582.7,35146,18.81,74128.3,9.09,-31.95,-33.03,0,*75
1496383583.95,35147,18.81,74128.0,9.05,-31.79,-33.09,0,*70
1496383585.17,35148,18.81,74128.3,9.01,-31.01,-32.23,0,*7D
1496383586.42,35149,18.81,74128.0,9.01,-30.39,-31.45,0,*75
1496383587.69,35150,18.81,74132.8,8.97,-32.45,-33.73,0,*7D
1496383588.96,35151,18.81,74130.5,8.97,-31.73,-32.79,0,*71
1496383590.19,35152,18.81,74132.8,8.93,-32.23,-33.67,0,*7E
1496383591.44,35153,18.81,74132.5,8.89,-33.73,-35.17,0,*71
1496383592.65,35154,18.81,74132.3,8.91,-32.35,-33.61,0,*7B
1496383593.91,35155,18.81,74132.0,8.85,-31.45,-32.45,0,*7C
1496383595.13,35156,18.81,74134.5,8.81,-31.17,-32.35,0,*7B
1496383596.36,35157,18.81,74134.8,8.81,-31.17,-32.39,0,*76
1496383597.59,35158,18.81,74132.8,8.79,-31.79,-33.09,0,*74
1496383598.84,35159,18.81,74134.3,8.75,-32.13,-33.31,0,*7D
1496383600.11,35160,18.81,74132.8,8.75,-30.61,-31.91,0,*78
1496383601.33,35161,18.81,74132.0,8.73,-30.23,-31.39,0,*7B
1496383602.57,35162,18.81,74132.8,8.71,-31.05,-32.19,0,*7E
1496383603.85,35163,18.81,74132.5,8.71,-30.73,-31.95,0,*78
1496383605.07,35164,18.81,74136.3,8.71,-31.29,-32.57,0,*7C
1496383606.29,35165,18.81,74136.3,8.71,-31.45,-32.57,0,*77
1496383607.55,35166,18.81,74138.3,8.69,-31.39,-32.79,0,*7A
1496383608.83,35167,18.81,74138.8,8.67,-31.91,-33.31,0,*7A
1496383610.08,35168,18.81,74140.0,8.65,-31.73,-32.97,0,*76
1496383611.35,35169,18.81,74140.8,8.63,-30.89,-32.29,0,*70
1496383612.61,35170,18.81,74144.8,8.63,-31.39,-32.51,0,*7D
1496383613.83,35171,18.81,74140.8,8.57,-33.27,-34.59,0,*78
1496383615.08,35172,18.81,74140.5,8.57,-34.59,-35.95,0,*74
1496383616.32,35173,18.81,74124.8,8.51,-34.89,-36.37,0,*75
1496383617.6,35174,18.81,74112.3,8.47,-34.19,-35.53,0,*7D
1496383618.81,35175,18.81,74116.3,8.45,-34.41,-36.01,0,*77
1496383620.06,35176,18.81,74126.3,8.35,-33.77,-35.07,0,*74
1496383621.31,35177,18.81,74122.3,8.33,-33.67,-34.95,0,*78
1496383622.56,35178,18.81,74120.3,8.33,-32.07,-33.15,0,*7F
1496383623.76,35179,18.81,74112.0,8.31,-29.07,-29.95,0,*75
1496383624.98,35180,18.81,74118.3,8.31,-28.59,-29.61,0,*72
1496383626.18,35181,18.81,74118.8,8.35,-27.67,-28.69,0,*7C
1496383627.43,35182,18.81,74118.5,8.35,-27.23,-28.21,0,*73
1496383628.67,35183,18.81,74124.5,8.45,-26.81,-27.67,0,*71
1496383629.93,35184,18.81,74124.0,8.47,-26.97,-27.89,0,*73
1496383631.2,35185,18.81,74126.3,8.51,-26.55,-27.39,0,*70
1496383632.45,35186,18.81,74128.3,8.51,-26.13,-27.07,0,*7C
1496383633.67,35187,18.81,74130.3,8.55,-27.55,-28.69,0,*7D
1496383634.93,35188,18.81,74130.3,8.59,-28.31,-29.35,0,*7B
1496383636.13,35189,18.81,74124.3,8.57,-28.53,-29.61,0,*71
1496383637.35,35190,18.81,74124.0,8.57,-30.33,-31.51,0,*7C
1496383638.58,35191,18.81,74122.8,8.57,-29.17,-30.11,0,*76
1496383639.78,35192,18.81,74122.8,8.57,-28.85,-29.79,0,*79
1496383641.03,35193,18.81,74124.3,8.59,-29.17,-30.27,0,*7F
1496383642.3,35194,18.81,74120.3,8.63,-28.09,-29.29,0,*79
1496383643.55,35195,18.81,74116.8,8.63,-27.93,-29.01,0,*7E
1496383644.8,35196,18.81,74116.3,8.65,-26.55,-27.39,0,*75
1496383646.06,35197,18.81,74124.0,8.67,-27.07,-28.21,0,*76
1496383647.29,35198,18.81,74116.8,8.69,-27.51,-28.59,0,*7B
1496383648.52,35199,18.81,74120.8,8.69,-26.55,-27.71,0,*7A
1496383649.72,35200,18.81,74124.0,8.69,-26.07,-27.03,0,*7B
1496383650.97,35201,18.81,74126.3,8.73,-26.29,-27.23,0,*7F
1496383652.19,35202,18.81,74128.8,8.73,-26.13,-27.13,0,*76
1496383653.44,35203,18.81,74126.5,8.77,-27.71,-28.75,0,*79
1496383654.67,35204,18.81,74132.8,8.79,-28.85,-30.05,0,*7A
1496383655.94,35205,18.81,74126.0,8.79,-29.51,-30.73,0,*72
1496383657.18,35206,18.81,74130.3,8.77,-30.45,-31.57,0,*75
1496383658.43,35207,18.81,74128.5,8.75,-29.73,-31.17,0,*7F
1496383659.69,35208,18.81,74128.5,8.75,-28.97,-30.17,0,*7A
1496383660.96,35209,18.81,74126.8,8.75,-28.25,-29.39,0,*76
1496383662.21,35210,18.81,74134.3,8.75,-28.75,-29.83,0,*7A
1496383663.47,35211,18.81,74128.5,8.77,-30.83,-32.07,0,*7F
1496383664.75,35212,18.81,74136.0,8.71,-30.95,-32.19,0,*72
1496383665.97,35213,18.81,74140.3,8.71,-30.23,-31.33,0,*75
1496383667.22,35214,18.81,74132.5,8.71,-31.67,-32.85,0,*7D
1496383668.44,35215,18.81,74124.5,8.69,-30.33,-31.51,0,*7F
1496383669.67,35216,18.81,74132.0,8.69,-30.27,-31.57,0,*7F
1496383670.9,35217,18.81,74130.3,8.67,-30.67,-32.01,0,*74
1496383672.13,35218,18.81,74122.5,8.65,-30.05,-31.45,0,*7E
1496383673.38,35219,18.81,74112.3,8.65,-30.51,-31.73,0,*7B
1496383674.6,35220,18.81,74112.5,8.65,-31.17,-32.29,0,*7E
1496383675.86,35221,18.81,74114.3,8.63,-31.39,-32.69,0,*71
1496383677.13,35222,18.81,74118.3,8.59,-33.77,-35.23,0,*7A
1496383678.38,35223,18.81,74120.0,8.53,-33.89,-35.41,0,*74
1496383679.64,35224,18.81,74122.8,8.53,-31.95,-33.31,0,*7D
1496383680.88,35225,18.81,74112.5,8.49,-31.95,-33.37,0,*71
1496383682.08,35226,18.81,74110.5,8.49,-30.27,-31.45,0,*7D
1496383683.34,35227,18.81,74106.3,8.49,-29.13,-30.17,0,*75
1496383684.59,35228,18.81,74104.5,8.49,-26.93,-27.83,0,*76
1496383685.84,35229,18.81,74112.8,8.51,-28.47,-29.45,0,*7D
1496383687.06,35230,18.81,74126.0,8.53,-28.31,-29.17,0,*71
1496383688.31,35231,18.81,74126.5,8.55,-26.87,-27.99,0,*7D
1496383689.58,35232,18.81,74124.3,8.55,-28.75,-29.73,0,*77
1496383690.83,35233,18.81,74122.8,8.59,-28.47,-29.57,0,*7D
1496383692.11,35234,18.81,74122.3,8.59,-28.79,-29.89,0,*74
1496383693.31,35235,18.81,74124.0,8.57,-30.11,-31.33,0,*74
1496383694.54,35236,18.81,74124.5,8.57,-31.61,-32.91,0,*7A
1496383695.77,35237,18.81,74120.5,8.57,-30.27,-31.57,0,*71
1496383697.02,35238,18.81,74116.8,8.55,-31.33,-32.63,0,*7C
1496383698.27,35239,18.81,74116.3,8.53,-30.73,-31.95,0,*74
1496383699.53,35240,18.81,74120.5,8.53,-31.73,-32.97,0,*7A
1496383700.78,35241,18.81,74122.0,8.51,-31.91,-33.21,0,*79
1496383702.01,35242,18.81,74118.5,8.49,-31.95,-33.21,0,*77
1496383703.21,35243,18.81,74118.0,8.45,-32.35,-33.67,0,*71
1496383704.44,35244,18.81,74116.3,8.45,-32.01,-33.31,0,*72